Regional Weather Roundup
Issued by NWS

Home | Current Version | Previous Version | Graphics & Text | Print | Product List | Glossary On
Versions: 1 2 3 4 5 6 7 8 9 10 11 12 13 14 15 16 17 18 19 20 21 22 23 24 25 26 27 28 29 30 31 32 33 34 35 36 37 38 39 40 41 42 43 44 45 46 47 48 49 50
000
ASUS43 KDMX 192007
RWRIA

WEATHER ROUNDUP FOR IOWA
NATIONAL WEATHER SERVICE DES MOINES IA
200 PM CST FRI DEC 19 2014

NOTE: "FAIR" INDICATES FEW OR NO CLOUDS BELOW 12,000 FEET WITH NO
SIGNIFICANT WEATHER AND/OR OBSTRUCTIONS TO VISIBILITY.

* - THESE STATIONS ARE NOT NWS STATIONS...THUS NOT UNDER NWS
QUALITY CONTROL.  THEY ALSO DO NOT REPORT WEATHER SUCH
AS PRECIPITATION OR FOG.

IAZ001>003-012>014-020>022-031>034-043>046-192100-
   NORTHWEST IOWA

CITY           SKY/WX    TMP DP  RH WIND       PRES   REMARKS
CARROLL *      CLOUDY    34  30  86 S9        30.17F WCI  26
CHEROKEE *     CLOUDY    34  28  80 S15       30.14F WCI  24
DENISON *      CLOUDY    34  30  86 S12       30.15F FOG     WCI  25
LE MARS *      CLOUDY    32  28  86 S14       30.13F WCI  22
ORANGE CITY *  CLOUDY    32  28  86 S13       30.11F FOG     WCI  22
SHELDON *      CLOUDY    32  30  93 S14       30.11F WCI  22
SIOUX CITY     CLOUDY    34  28  79 S16       30.14F WCI  24
SPENCER        CLOUDY    34  28  79 S10       30.14F HAZE    WCI  26
STORM LAKE *   CLOUDY    32  30  93 S12       30.14F FOG     WCI  23
$$

IAZ055>058-069>071-079>083-090>094-192100-
   SOUTHWEST IOWA

CITY           SKY/WX    TMP DP  RH WIND       PRES   REMARKS
ATLANTIC *     CLOUDY    32  30  93 S10       30.19S WCI  24
AUDUBON *      SUNNY     32  27  80 S9        30.19F WCI  24
CLARINDA *     CLOUDY    30  32 100 S9        30.23F FOG     WCI  22
COUNCIL BLFS * CLOUDY    32  32 100 S12       30.16F WCI  23
CRESTON *      CLOUDY    32  32 100 S12       30.20F FOG     WCI  23
HARLAN  *      CLOUDY    32  32 100 S9        30.21F WCI  24
LAMONI         CLOUDY    32  29  88 S10       30.21F WCI  24
RED OAK *      CLOUDY    32  30  93 S13       30.20F WCI  22
SHENANDOAH *   CLOUDY    30  28  93 S12       30.22F WCI  21
$$

IAZ047>049-059>061-072>074-084-192100-
   CENTRAL IOWA

CITY           SKY/WX    TMP DP  RH WIND       PRES   REMARKS
AMES           CLOUDY    31  26  82 SE6       30.22S WCI  25
ANKENY *       CLOUDY    32  28  86 S7        30.23S WCI  26
CHARITON *     CLOUDY    32  30  93 S8        30.23S FOG     WCI  25
DES MOINES     CLOUDY    33  27  78 SE9       30.23S WCI  25
GRINNELL*      CLOUDY    30  25  80 S8        30.24S WCI  23
KNOXVILLE *    CLOUDY    32  27  80 SE8       30.23S WCI  25
MARSHALLTOWN   CLOUDY    30  24  78 S9        30.22S WCI  22
PELLA *        CLOUDY    32  28  86 S7        30.26S FOG     WCI  26
PERRY *        CLOUDY    34  32  93 S9        30.20F FOG     WCI  26
$$

IAZ004>006-015-016-023>025-035-036-192100-
   NORTH CENTRAL IOWA

CITY           SKY/WX    TMP DP  RH WIND       PRES   REMARKS
ALGONA *       PTSUNNY   32  30  93 S13       30.17F FOG     WCI  22
CLARION *      CLOUDY    30  32 100 S10       30.19F FOG     WCI  21
ESTHERVILLE    CLOUDY    32  28  85 S10       30.14F FOG     WCI  24
FORT DODGE *   CLOUDY    32  27  80 S9        30.19F WCI  24
MASON CITY     CLOUDY    30  26  85 S8        30.21F WCI  22
FOREST CITY *  CLOUDY    32  28  86 S8        30.19S FOG     WCI  25
IOWA FALLS *   CLOUDY    32  27  80 SE7       30.21F WCI  26
$$

IAZ007>011-017>019-026>030-037>042-050>054-066-192100-
   NORTHEAST IOWA

CITY           SKY/WX    TMP DP  RH WIND       PRES   REMARKS
CEDAR RAPIDS   CLOUDY    31  20  63 S6        30.25S WCI  25
CHARLES CITY * CLOUDY    30  25  80 S7        30.22F WCI  23
CLINTON *      CLOUDY    28  19  69 CALM      30.30S
DECORAH *      CLOUDY    28  21  74 SE7       30.22F WCI  21
DUBUQUE        CLOUDY    28  19  69 CALM      30.24F
MONTICELLO *   CLOUDY    28  23  80 S5        30.26S WCI  23
OELWEIN *      CLOUDY    28  21  74 S8        30.24S WCI  20
WATERLOO       CLOUDY    30  22  72 SE7       30.23F WCI  23
$$

IAZ064-065-067-068-078-192100-
   EAST CENTRAL IOWA

CITY           SKY/WX    TMP DP  RH WIND       PRES   REMARKS
DAVENPORT      PTSUNNY   30  19  63 E3        30.27S
IOWA CITY      CLOUDY    31  20  63 S5        30.28S WCI  26
MT. PLEASANT * CLOUDY    30  23  74 S5        30.30R WCI  25
MUSCATINE *    CLOUDY    32  19  59 SE3       30.29S
QUAD CITIES    CLOUDY    31  19  61 CALM      30.27S
$$

IAZ062-063-075>077-085>089-095>099-192100-
   SOUTHEAST IOWA

CITY           SKY/WX    TMP DP  RH WIND       PRES   REMARKS
BURLINGTON     CLOUDY    33  23  66 SW3       30.28R
FAIRFIELD *    CLOUDY    30  23  74 SE8       30.28R WCI  23
FORT MADISON * CLOUDY    34  27  75 SW6       30.30R WCI  29
KEOKUK *       CLOUDY    32  25  74 S5        30.30R WCI  27
OSKALOOSA *    CLOUDY    30  27  86 SE7       30.26S WCI  23
CENTERVILLE *  CLOUDY    32  30  93 SE6       30.25F WCI  26
OTTUMWA        CLOUDY    30  24  78 S5        30.26R WCI  25
WASHINGTON *   CLOUDY    30  27  86 SE6       30.28R WCI  24
$$

ABBREVIATIONS USED IN REMARKS
   TC - TEMPERATURES IN CELSIUS
  WCI - WIND CHILL INDEX
   HX - HEAT INDEX
  VSB - VISIBILITY
$$




USA.gov is the U.S. government's official web portal to all federal, state and local government web resources and services.